Time,TemperatureF,DewpointF,PressureIn,WindDirection,WindDirectionDegrees,WindSpeedMPH,WindSpeedGustMPH,Humidity,HourlyPrecipIn,Conditions,Clouds,dailyrainin,SolarRadiationWatts/m^2,SoftwareType,DateUTC
2013-05-03 00:01:00,31.5,28.9,30.38,North,10,6.0,8.0,90,0.00,,,0.00,0.00,VWS V14.01,2013-05-03 05:01:00,
2013-05-03 00:06:00,31.5,28.9,30.37,North,9,5.0,8.0,90,0.00,,,0.00,0.00,VWS V14.01,2013-05-03 05:06:00,
2013-05-03 00:11:00,31.5,28.9,30.37,NNW,346,5.0,8.0,90,0.00,,,0.00,0.00,VWS V14.01,2013-05-03 05:11:00,
2013-05-03 00:16:00,31.5,28.9,30.37,North,355,5.0,8.0,90,0.00,,,0.00,0.00,VWS V14.01,2013-05-03 05:16:00,
2013-05-03 00:22:00,31.5,28.9,30.36,NNE,12,4.0,8.0,90,0.00,,OVC041,0.00,0.00,VWS V14.01,2013-05-03 05:22:00,
2013-05-03 00:27:00,31.5,28.9,30.37,NNW,342,3.0,8.0,90,0.00,,OVC041,0.00,0.00,VWS V14.01,2013-05-03 05:27:00,
2013-05-03 00:32:00,31.5,28.9,30.36,North,11,1.0,8.0,90,0.00,,OVC041,0.00,0.00,VWS V14.01,2013-05-03 05:32:00,
2013-05-03 00:37:00,31.5,28.9,30.36,NNE,22,5.0,10.0,90,0.00,,OVC041,0.00,0.00,VWS V14.01,2013-05-03 05:37:00,
2013-05-03 00:42:00,31.5,28.9,30.36,NNE,19,2.0,10.0,90,0.00,,OVC041,0.00,0.00,VWS V14.01,2013-05-03 05:42:00,
2013-05-03 00:47:00,31.4,28.8,30.36,NNE,28,2.0,10.0,90,0.00,,OVC041,0.00,0.00,VWS V14.01,2013-05-03 05:47:00,
2013-05-03 00:52:00,31.4,28.8,30.35,NE,34,2.0,10.0,90,0.00,,OVC041,0.00,0.00,VWS V14.01,2013-05-03 05:52:00,
2013-05-03 00:57:00,31.4,28.8,30.35,NNE,19,2.0,10.0,90,0.00,,OVC041,0.00,0.00,VWS V14.01,2013-05-03 05:57:00,
2013-05-03 01:02:00,31.4,28.8,30.34,NNE,24,4.0,8.0,90,0.00,,OVC039,0.00,0.00,VWS V14.01,2013-05-03 06:02:00,
2013-05-03 01:07:00,31.4,28.8,30.34,NE,41,7.0,9.0,90,0.00,,OVC039,0.00,0.00,VWS V14.01,2013-05-03 06:07:00,
2013-05-03 01:12:00,31.4,28.8,30.34,North,355,2.0,9.0,90,0.00,,OVC039,0.00,0.00,VWS V14.01,2013-05-03 06:12:00,
2013-05-03 01:17:00,31.4,28.8,30.34,NNE,21,2.0,9.0,90,0.00,,OVC039,0.00,0.00,VWS V14.01,2013-05-03 06:17:00,
2013-05-03 01:22:00,31.4,28.8,30.34,North,11,2.0,9.0,90,0.00,,OVC039,0.00,0.00,VWS V14.01,2013-05-03 06:22:00,
2013-05-03 01:27:00,31.4,28.8,30.34,North,355,2.0,9.0,90,0.00,,OVC039,0.00,0.00,VWS V14.01,2013-05-03 06:27:00,
2013-05-03 01:32:00,31.4,28.8,30.33,North,355,3.0,4.0,90,0.00,,OVC039,0.00,0.00,VWS V14.01,2013-05-03 06:32:00,
2013-05-03 01:37:00,31.4,28.8,30.33,NNE,23,4.0,8.0,90,0.00,,OVC039,0.00,0.00,VWS V14.01,2013-05-03 06:37:00,
2013-05-03 01:42:00,31.4,28.8,30.33,NNE,15,2.0,8.0,90,0.00,,OVC039,0.00,0.00,VWS V14.01,2013-05-03 06:42:00,
2013-05-03 01:47:00,31.4,28.8,30.33,NNE,27,1.0,8.0,90,0.00,,OVC039,0.00,0.00,VWS V14.01,2013-05-03 06:47:00,
2013-05-03 01:52:00,31.4,28.8,30.33,NNE,24,3.0,8.0,90,0.00,,OVC039,0.00,0.00,VWS V14.01,2013-05-03 06:52:00,
2013-05-03 01:57:00,31.4,28.8,30.33,NNE,25,1.0,8.0,90,0.00,,OVC039,0.00,0.00,VWS V14.01,2013-05-03 06:57:00,
2013-05-03 02:02:00,31.4,29.1,30.32,North,11,3.0,5.0,91,0.00,,,0.00,0.00,VWS V14.01,2013-05-03 07:02:00,
2013-05-03 02:07:00,31.3,29.0,30.32,North,9,5.0,5.0,91,0.00,,,0.00,0.00,VWS V14.01,2013-05-03 07:07:00,
2013-05-03 02:12:00,31.3,29.0,30.32,North,10,3.0,7.0,91,0.00,,,0.00,0.00,VWS V14.01,2013-05-03 07:12:00,
2013-05-03 02:17:00,31.4,29.1,30.32,NNE,22,2.0,7.0,91,0.00,,,0.00,0.00,VWS V14.01,2013-05-03 07:17:00,
2013-05-03 02:22:00,31.4,29.1,30.32,North,360,1.0,7.0,91,0.00,,,0.00,0.00,VWS V14.01,2013-05-03 07:22:00,
2013-05-03 02:27:00,31.3,29.0,30.32,NNW,334,2.0,7.0,91,0.00,,,0.00,0.00,VWS V14.01,2013-05-03 07:27:00,
2013-05-03 02:32:00,31.4,29.1,30.31,NNW,346,4.0,6.0,91,0.00,,,0.00,0.00,VWS V14.01,2013-05-03 07:32:00,
2013-05-03 02:37:00,31.4,29.1,30.31,North,351,3.0,7.0,91,0.00,,,0.00,0.00,VWS V14.01,2013-05-03 07:37:00,
2013-05-03 02:42:00,31.4,29.1,30.31,NNE,19,3.0,7.0,91,0.00,,,0.00,0.00,VWS V14.01,2013-05-03 07:42:00,
2013-05-03 02:47:00,31.4,29.1,30.30,NE,41,5.0,7.0,91,0.00,,,0.00,0.00,VWS V14.01,2013-05-03 07:47:00,
2013-05-03 02:52:00,31.4,29.1,30.31,NNW,338,2.0,7.0,91,0.00,,,0.00,0.00,VWS V14.01,2013-05-03 07:52:00,
2013-05-03 02:57:00,31.4,29.1,30.31,NNE,13,0.0,10.0,91,0.00,,,0.00,0.00,VWS V14.01,2013-05-03 07:57:00,
2013-05-03 03:02:00,31.4,29.1,30.31,North,5,3.0,8.0,91,0.00,,OVC037,0.00,0.00,VWS V14.01,2013-05-03 08:02:00,
2013-05-03 03:07:00,31.5,29.2,30.30,NNE,22,2.0,8.0,91,0.00,,OVC037,0.00,0.00,VWS V14.01,2013-05-03 08:07:00,
2013-05-03 03:12:00,31.5,29.2,30.30,NNE,19,3.0,9.0,91,0.00,,OVC037,0.00,0.00,VWS V14.01,2013-05-03 08:12:00,
2013-05-03 03:17:00,31.5,29.2,30.29,North,355,2.0,9.0,91,0.00,,OVC037,0.00,0.00,VWS V14.01,2013-05-03 08:17:00,
2013-05-03 03:22:00,31.5,29.2,30.30,NNE,20,3.0,9.0,91,0.00,,OVC037,0.00,0.00,VWS V14.01,2013-05-03 08:22:00,
2013-05-03 03:27:00,31.5,29.2,30.30,NNW,338,5.0,9.0,91,0.00,,OVC037,0.00,0.00,VWS V14.01,2013-05-03 08:27:00,
2013-05-03 03:32:00,31.5,29.2,30.30,NNE,12,3.0,6.0,91,0.00,,OVC037,0.00,0.00,VWS V14.01,2013-05-03 08:32:00,
2013-05-03 03:37:00,31.5,29.2,30.30,ENE,61,0.0,7.0,91,0.00,,OVC037,0.00,0.00,VWS V14.01,2013-05-03 08:37:00,
2013-05-03 03:42:00,31.5,28.9,30.31,NNE,15,3.0,7.0,90,0.00,,OVC037,0.00,0.00,VWS V14.01,2013-05-03 08:42:00,
2013-05-03 03:47:00,31.5,29.2,30.31,North,351,2.0,7.0,91,0.00,,OVC037,0.00,0.00,VWS V14.01,2013-05-03 08:47:00,
2013-05-03 03:52:00,31.5,28.9,30.31,NNE,22,4.0,7.0,90,0.00,,OVC037,0.00,0.00,VWS V14.01,2013-05-03 08:52:00,
2013-05-03 03:57:00,31.5,28.9,30.31,North,5,1.0,7.0,90,0.00,,OVC037,0.00,0.00,VWS V14.01,2013-05-03 08:57:00,
2013-05-03 04:02:00,31.5,28.9,30.30,NNE,30,5.0,9.0,90,0.00,,,0.00,0.00,VWS V14.01,2013-05-03 09:02:00,
2013-05-03 04:07:00,31.5,28.9,30.30,North,10,3.0,9.0,90,0.00,,,0.00,0.00,VWS V14.01,2013-05-03 09:07:00,
2013-05-03 04:12:00,31.5,29.2,30.29,NNE,15,3.0,9.0,91,0.00,,,0.00,0.00,VWS V14.01,2013-05-03 09:12:00,
2013-05-03 04:17:00,31.5,29.2,30.29,NNE,15,3.0,9.0,91,0.00,,,0.00,0.00,VWS V14.01,2013-05-03 09:17:00,
2013-05-03 04:22:00,31.5,29.2,30.29,NNE,28,2.0,9.0,91,0.00,,,0.00,0.00,VWS V14.01,2013-05-03 09:22:00,
2013-05-03 04:27:00,31.5,29.2,30.29,North,5,2.0,9.0,91,0.00,,,0.00,0.00,VWS V14.01,2013-05-03 09:27:00,
2013-05-03 04:32:00,31.4,29.1,30.29,NNE,26,2.0,8.0,91,0.00,,,0.00,0.00,VWS V14.01,2013-05-03 09:32:00,
2013-05-03 04:37:00,31.4,29.1,30.29,NE,40,1.0,8.0,91,0.00,,,0.00,0.00,VWS V14.01,2013-05-03 09:37:00,
2013-05-03 04:42:00,31.3,29.0,30.29,NNW,348,4.0,8.0,91,0.00,,,0.00,0.00,VWS V14.01,2013-05-03 09:42:00,
2013-05-03 04:47:00,31.2,28.9,30.29,North,5,4.0,8.0,91,0.00,,,0.00,0.00,VWS V14.01,2013-05-03 09:47:00,
2013-05-03 04:52:00,31.2,28.9,30.29,NNE,22,1.0,8.0,91,0.00,,,0.00,0.00,VWS V14.01,2013-05-03 09:52:00,
2013-05-03 04:57:00,31.1,28.8,30.28,NNE,30,4.0,8.0,91,0.00,,,0.00,0.00,VWS V14.01,2013-05-03 09:57:00,
2013-05-03 05:02:00,31.1,28.8,30.28,NNE,17,2.0,7.0,91,0.00,,,0.00,0.00,VWS V14.01,2013-05-03 10:02:00,
2013-05-03 05:07:00,31.1,28.8,30.28,NNE,21,3.0,7.0,91,0.00,,,0.00,0.00,VWS V14.01,2013-05-03 10:07:00,
2013-05-03 05:12:00,31.1,28.8,30.28,NNE,18,3.0,11.0,91,0.00,,,0.00,0.00,VWS V14.01,2013-05-03 10:12:00,
2013-05-03 05:17:00,31.0,28.7,30.28,NNE,17,4.0,11.0,91,0.00,,,0.00,0.00,VWS V14.01,2013-05-03 10:17:00,
2013-05-03 05:22:00,31.0,28.7,30.28,NNE,15,4.0,11.0,91,0.00,,,0.00,0.00,VWS V14.01,2013-05-03 10:22:00,
2013-05-03 05:27:00,31.0,28.7,30.28,NNE,18,3.0,11.0,91,0.00,,,0.00,0.00,VWS V14.01,2013-05-03 10:27:00,
2013-05-03 05:32:00,31.1,28.8,30.27,North,11,1.0,5.0,91,0.00,,,0.00,0.00,VWS V14.01,2013-05-03 10:32:00,
2013-05-03 05:37:00,31.1,28.8,30.27,North,10,5.0,6.0,91,0.00,,,0.00,0.00,VWS V14.01,2013-05-03 10:37:00,
2013-05-03 05:42:00,31.1,28.8,30.27,NNE,23,3.0,8.0,91,0.00,,,0.00,0.00,VWS V14.01,2013-05-03 10:42:00,
2013-05-03 05:47:00,31.1,28.8,30.26,NNE,13,4.0,8.0,91,0.00,,,0.00,0.00,VWS V14.01,2013-05-03 10:47:00,
2013-05-03 05:52:00,31.1,28.5,30.25,NNE,28,3.0,11.0,90,0.00,,,0.00,0.00,VWS V14.01,2013-05-03 10:52:00,
2013-05-03 05:57:00,31.1,28.5,30.25,NNE,19,2.0,11.0,90,0.00,,,0.00,0.00,VWS V14.01,2013-05-03 10:57:00,
2013-05-03 06:02:00,31.2,28.6,30.25,North,5,6.0,8.0,90,0.00,,FZRA,0.00,0.00,VWS V14.01,2013-05-03 11:02:00,
2013-05-03 06:07:00,31.2,28.9,30.24,NNW,344,3.0,11.0,91,0.00,,FZRA,0.00,0.00,VWS V14.01,2013-05-03 11:07:00,
2013-05-03 06:12:00,31.2,28.6,30.24,NNE,15,5.0,11.0,90,0.00,,FZRA,0.00,0.00,VWS V14.01,2013-05-03 11:12:00,
2013-05-03 06:17:00,31.3,29.0,30.24,NNE,30,3.0,11.0,91,0.00,,FZRA,0.00,0.00,VWS V14.01,2013-05-03 11:17:00,
2013-05-03 06:22:00,31.3,29.0,30.24,North,360,3.0,11.0,91,0.00,,OVC041,0.00,0.00,VWS V14.01,2013-05-03 11:22:00,
2013-05-03 06:27:00,31.3,29.0,30.24,NNE,25,4.0,11.0,91,0.00,,OVC041,0.00,0.00,VWS V14.01,2013-05-03 11:27:00,
2013-05-03 06:32:00,31.3,29.0,30.24,NE,38,4.0,7.0,91,0.00,,OVC041,0.00,5.00,VWS V14.01,2013-05-03 11:32:00,
2013-05-03 06:37:00,31.3,29.0,30.24,North,5,4.0,7.0,91,0.00,,OVC041,0.00,9.00,VWS V14.01,2013-05-03 11:37:00,
2013-05-03 06:42:00,31.4,29.1,30.25,NNE,13,3.0,7.0,91,0.00,,OVC041,0.00,16.00,VWS V14.01,2013-05-03 11:42:00,
2013-05-03 06:47:00,31.5,29.2,30.24,NNE,24,3.0,7.0,91,0.00,,OVC041,0.00,19.00,VWS V14.01,2013-05-03 11:47:00,
2013-05-03 06:52:00,31.5,29.2,30.25,NNE,30,3.0,7.0,91,0.00,,OVC041,0.00,21.00,VWS V14.01,2013-05-03 11:52:00,
2013-05-03 06:57:00,31.6,29.0,30.25,NNE,12,1.0,7.0,90,0.00,,OVC041,0.00,19.00,VWS V14.01,2013-05-03 11:57:00,
2013-05-03 07:02:00,31.7,29.1,30.25,NNE,20,0.0,4.0,90,0.00,,OVC015,0.00,11.00,VWS V14.01,2013-05-03 12:02:00,
2013-05-03 07:07:00,31.7,29.1,30.25,NE,45,1.0,4.0,90,0.00,,OVC015,0.00,16.00,VWS V14.01,2013-05-03 12:07:00,
2013-05-03 07:12:00,31.8,29.2,30.26,NNE,22,1.0,4.0,90,0.00,,OVC015,0.00,14.00,VWS V14.01,2013-05-03 12:12:00,
2013-05-03 07:17:00,31.8,29.5,30.25,NNE,26,3.0,5.0,91,0.00,,OVC015,0.00,12.00,VWS V14.01,2013-05-03 12:17:00,
2013-05-03 07:22:00,31.8,29.2,30.25,NNE,16,2.0,5.0,90,0.00,,FZRA,0.00,16.00,VWS V14.01,2013-05-03 12:22:00,
2013-05-03 07:27:00,31.9,29.6,30.25,NNE,23,2.0,5.0,91,0.00,,FZRA,0.00,14.00,VWS V14.01,2013-05-03 12:27:00,
2013-05-03 07:32:00,31.9,29.6,30.25,NNW,348,5.0,8.0,91,0.00,,FZRA,0.00,11.00,VWS V14.01,2013-05-03 12:32:00,
2013-05-03 07:37:00,31.9,29.6,30.25,NNE,15,2.0,8.0,91,0.00,,FZRA,0.00,12.00,VWS V14.01,2013-05-03 12:37:00,
2013-05-03 07:42:00,32.0,29.7,30.25,NNE,22,3.0,8.0,91,0.00,,FZRA,0.00,14.00,VWS V14.01,2013-05-03 12:42:00,
2013-05-03 07:47:00,32.0,29.7,30.25,North,5,4.0,8.0,91,0.00,,FZRA,0.00,19.00,VWS V14.01,2013-05-03 12:47:00,
2013-05-03 07:52:00,32.1,29.8,30.24,NNE,13,1.0,8.0,91,0.00,,FZRA,0.00,25.00,VWS V14.01,2013-05-03 12:52:00,
2013-05-03 07:57:00,32.1,29.8,30.24,NNE,20,4.0,8.0,91,0.00,,FZRA,0.00,28.00,VWS V14.01,2013-05-03 12:57:00,
2013-05-03 08:02:00,32.2,29.9,30.24,NNE,24,3.0,4.0,91,0.00,,OVC023,0.00,30.00,VWS V14.01,2013-05-03 13:02:00,
2013-05-03 08:07:00,32.2,29.6,30.24,NNE,23,3.0,7.0,90,0.00,,OVC023,0.00,28.00,VWS V14.01,2013-05-03 13:07:00,
2013-05-03 08:12:00,32.2,29.6,30.23,NNE,19,4.0,7.0,90,0.00,,OVC023,0.00,30.00,VWS V14.01,2013-05-03 13:12:00,
2013-05-03 08:17:00,32.3,29.7,30.23,North,11,1.0,7.0,90,0.00,,OVC023,0.00,30.00,VWS V14.01,2013-05-03 13:17:00,
2013-05-03 08:22:00,32.3,29.7,30.23,NNE,22,0.0,7.0,90,0.00,,OVC017,0.00,26.00,VWS V14.01,2013-05-03 13:22:00,
2013-05-03 08:27:00,32.3,29.7,30.23,NNE,15,2.0,7.0,90,0.00,,OVC017,0.00,28.00,VWS V14.01,2013-05-03 13:27:00,
2013-05-03 08:32:00,32.3,29.7,30.23,NNE,16,2.0,3.0,90,0.00,,OVC017,0.00,23.00,VWS V14.01,2013-05-03 13:32:00,
2013-05-03 08:37:00,32.3,29.7,30.23,NNE,22,1.0,4.0,90,0.00,,OVC017,0.00,21.00,VWS V14.01,2013-05-03 13:37:00,
2013-05-03 08:42:00,32.3,29.7,30.23,North,10,1.0,4.0,90,0.00,,OVC017,0.00,25.00,VWS V14.01,2013-05-03 13:42:00,
2013-05-03 08:47:00,32.3,29.7,30.23,NE,49,2.0,6.0,90,0.00,,OVC017,0.00,23.00,VWS V14.01,2013-05-03 13:47:00,
2013-05-03 08:52:00,32.3,29.7,30.24,North,360,3.0,6.0,90,0.00,,OVC017,0.00,21.00,VWS V14.01,2013-05-03 13:52:00,
2013-05-03 08:57:00,32.3,29.7,30.24,NNE,15,2.0,6.0,90,0.00,,OVC017,0.00,26.00,VWS V14.01,2013-05-03 13:57:00,
2013-05-03 09:02:00,32.3,29.7,30.24,NNE,23,2.0,3.0,90,0.00,,OVC014,0.00,28.00,VWS V14.01,2013-05-03 14:02:00,
2013-05-03 09:07:00,32.4,29.8,30.24,NNE,23,1.0,3.0,90,0.00,,OVC014,0.00,30.00,VWS V14.01,2013-05-03 14:07:00,
2013-05-03 09:12:00,32.5,30.2,30.24,NNE,23,2.0,3.0,91,0.00,,OVC014,0.00,33.00,VWS V14.01,2013-05-03 14:12:00,
2013-05-03 09:17:00,32.6,30.3,30.23,NNE,23,3.0,4.0,91,0.00,,OVC014,0.00,37.00,VWS V14.01,2013-05-03 14:17:00,
2013-05-03 09:22:00,32.7,30.4,30.23,NNE,13,3.0,5.0,91,0.00,,,0.00,46.00,VWS V14.01,2013-05-03 14:22:00,
2013-05-03 09:27:00,32.7,30.4,30.22,NNE,16,1.0,6.0,91,0.00,,,0.00,60.00,VWS V14.01,2013-05-03 14:27:00,
2013-05-03 09:32:00,32.8,30.2,30.22,NNE,17,3.0,4.0,90,0.00,,,0.00,69.00,VWS V14.01,2013-05-03 14:32:00,
2013-05-03 09:37:00,33.0,30.4,30.22,North,11,3.0,5.0,90,0.00,,,0.00,83.00,VWS V14.01,2013-05-03 14:37:00,
2013-05-03 09:42:00,33.2,30.9,30.22,NNE,12,1.0,5.0,91,0.00,,,0.00,74.00,VWS V14.01,2013-05-03 14:42:00,
2013-05-03 09:47:00,33.3,31.0,30.22,NNE,12,0.0,5.0,91,0.00,,,0.00,70.00,VWS V14.01,2013-05-03 14:47:00,
2013-05-03 09:52:00,33.3,30.7,30.22,NNW,346,2.0,6.0,90,0.00,,,0.00,69.00,VWS V14.01,2013-05-03 14:52:00,
2013-05-03 09:57:00,33.4,30.8,30.22,NNE,32,2.0,6.0,90,0.00,,,0.00,74.00,VWS V14.01,2013-05-03 14:57:00,
2013-05-03 10:02:00,33.4,30.8,30.22,NNE,18,2.0,4.0,90,0.00,,OVC019,0.00,86.00,VWS V14.01,2013-05-03 15:02:00,
2013-05-03 10:07:00,33.5,30.9,30.21,NNW,347,3.0,4.0,90,0.00,,OVC019,0.00,91.00,VWS V14.01,2013-05-03 15:07:00,
2013-05-03 10:12:00,33.6,31.0,30.21,NNE,12,3.0,6.0,90,0.00,,OVC019,0.00,79.00,VWS V14.01,2013-05-03 15:12:00,
2013-05-03 10:17:00,33.6,31.0,30.21,North,5,3.0,9.0,90,0.00,,OVC019,0.00,54.00,VWS V14.01,2013-05-03 15:17:00,
2013-05-03 10:22:00,33.5,30.9,30.22,North,360,1.0,9.0,90,0.00,,OVC019,0.00,47.00,VWS V14.01,2013-05-03 15:22:00,
2013-05-03 10:27:00,33.5,30.9,30.21,NNE,21,1.0,9.0,90,0.00,,OVC019,0.00,40.00,VWS V14.01,2013-05-03 15:27:00,
2013-05-03 10:32:00,33.4,30.8,30.21,North,5,3.0,5.0,90,0.00,,OVC019,0.00,42.00,VWS V14.01,2013-05-03 15:32:00,
2013-05-03 10:37:00,33.4,30.8,30.22,NNE,33,3.0,5.0,90,0.00,,OVC019,0.00,46.00,VWS V14.01,2013-05-03 15:37:00,
2013-05-03 10:42:00,33.4,30.8,30.22,NE,35,1.0,5.0,90,0.00,,-RA,0.00,53.00,VWS V14.01,2013-05-03 15:42:00,
2013-05-03 10:47:00,33.5,30.9,30.22,NNE,17,1.0,7.0,90,0.00,,-RA,0.00,67.00,VWS V14.01,2013-05-03 15:47:00,
2013-05-03 10:52:00,33.6,31.0,30.22,NE,37,2.0,7.0,90,0.00,,-RA,0.00,74.00,VWS V14.01,2013-05-03 15:52:00,
2013-05-03 10:57:00,33.7,31.1,30.22,North,5,4.0,7.0,90,0.00,,-RA,0.00,83.00,VWS V14.01,2013-05-03 15:57:00,
2013-05-03 11:02:00,33.7,31.1,30.21,NNE,14,2.0,7.0,90,0.00,,OVC016,0.00,72.00,VWS V14.01,2013-05-03 16:02:00,
2013-05-03 11:07:00,33.8,31.2,30.21,NNE,29,1.0,7.0,90,0.00,,OVC016,0.00,72.00,VWS V14.01,2013-05-03 16:07:00,
2013-05-03 11:12:00,33.9,31.3,30.21,North,10,2.0,7.0,90,0.00,,OVC016,0.00,74.00,VWS V14.01,2013-05-03 16:12:00,
2013-05-03 11:17:00,33.9,31.3,30.21,North,5,0.0,7.0,90,0.00,,OVC016,0.00,95.00,VWS V14.01,2013-05-03 16:17:00,
2013-05-03 11:22:00,34.0,31.4,30.21,NNE,15,5.0,7.0,90,0.00,,OVC014,0.00,97.00,VWS V14.01,2013-05-03 16:22:00,
2013-05-03 11:27:00,34.0,31.4,30.21,NNE,25,2.0,7.0,90,0.00,,OVC014,0.00,97.00,VWS V14.01,2013-05-03 16:27:00,
2013-05-03 11:32:00,34.0,31.4,30.20,NNE,12,2.0,5.0,90,0.00,,OVC014,0.00,114.00,VWS V14.01,2013-05-03 16:32:00,
2013-05-03 11:37:00,34.1,31.5,30.20,North,5,2.0,6.0,90,0.00,,OVC014,0.00,114.00,VWS V14.01,2013-05-03 16:37:00,
2013-05-03 11:42:00,34.2,31.6,30.20,NNE,25,2.0,6.0,90,0.00,,OVC014,0.00,113.00,VWS V14.01,2013-05-03 16:42:00,
2013-05-03 11:47:00,34.3,31.7,30.21,NNE,17,3.0,6.0,90,0.00,,OVC014,0.00,120.00,VWS V14.01,2013-05-03 16:47:00,
2013-05-03 11:53:00,34.4,31.8,30.20,NNE,20,3.0,6.0,90,0.00,,OVC014,0.00,144.00,VWS V14.01,2013-05-03 16:53:00,
2013-05-03 11:58:00,34.5,31.9,30.20,North,5,1.0,6.0,90,0.00,,OVC014,0.00,139.00,VWS V14.01,2013-05-03 16:58:00,
2013-05-03 12:02:00,34.5,31.9,30.20,NNE,13,2.0,5.0,90,0.00,,OVC015,0.00,141.00,VWS V14.01,2013-05-03 17:02:00,
2013-05-03 12:07:00,34.5,31.9,30.20,NNE,18,1.0,5.0,90,0.00,,OVC015,0.00,156.00,VWS V14.01,2013-05-03 17:07:00,
2013-05-03 12:12:00,34.6,32.0,30.19,NNE,29,2.0,6.0,90,0.00,,OVC015,0.00,192.00,VWS V14.01,2013-05-03 17:12:00,
2013-05-03 12:17:00,34.7,32.1,30.19,NNE,16,0.0,6.0,90,0.00,,OVC015,0.00,207.00,VWS V14.01,2013-05-03 17:17:00,
2013-05-03 12:23:00,34.9,32.3,30.19,NNE,16,0.0,6.0,90,0.00,,OVC015,0.00,232.00,VWS V14.01,2013-05-03 17:23:00,
2013-05-03 12:28:00,35.0,32.4,30.18,NNE,13,3.0,7.0,90,0.00,,OVC015,0.00,258.00,VWS V14.01,2013-05-03 17:28:00,
2013-05-03 12:33:00,35.2,32.3,30.19,NNE,14,3.0,6.0,89,0.00,,OVC015,0.00,267.00,VWS V14.01,2013-05-03 17:33:00,
2013-05-03 12:38:00,35.3,32.4,30.18,North,351,3.0,6.0,89,0.00,,OVC015,0.00,272.00,VWS V14.01,2013-05-03 17:38:00,
2013-05-03 12:43:00,35.4,32.5,30.18,NNE,24,4.0,9.0,89,0.00,,OVC015,0.00,281.00,VWS V14.01,2013-05-03 17:43:00,
2013-05-03 12:48:00,35.4,32.5,30.18,North,355,1.0,9.0,89,0.00,,OVC015,0.00,302.00,VWS V14.01,2013-05-03 17:48:00,
2013-05-03 12:53:00,35.4,32.5,30.18,NNE,25,3.0,9.0,89,0.00,,OVC015,0.00,325.00,VWS V14.01,2013-05-03 17:53:00,
2013-05-03 12:58:00,35.6,32.7,30.18,North,5,3.0,9.0,89,0.00,,OVC015,0.00,308.00,VWS V14.01,2013-05-03 17:58:00,
2013-05-03 13:03:00,35.4,32.2,30.18,NNE,26,4.0,8.0,88,0.00,,-RA,0.00,352.00,VWS V14.01,2013-05-03 18:03:00,
2013-05-03 13:08:00,35.6,32.4,30.17,NNE,30,6.0,8.0,88,0.00,,-RA,0.00,445.00,VWS V14.01,2013-05-03 18:08:00,
2013-05-03 13:13:00,35.9,32.7,30.17,North,11,2.0,8.0,88,0.00,,-RA,0.00,478.00,VWS V14.01,2013-05-03 18:13:00,
2013-05-03 13:18:00,36.1,32.9,30.17,NNE,15,4.0,8.0,88,0.00,,-RA,0.00,388.00,VWS V14.01,2013-05-03 18:18:00,
2013-05-03 13:23:00,36.1,32.6,30.17,NNE,12,2.0,8.0,87,0.00,,-RA,0.00,332.00,VWS V14.01,2013-05-03 18:23:00,
2013-05-03 13:28:00,35.9,32.4,30.17,NNE,17,2.0,8.0,87,0.00,,-RA,0.00,330.00,VWS V14.01,2013-05-03 18:28:00,
2013-05-03 13:33:00,35.7,32.2,30.17,NNE,19,6.0,6.0,87,0.00,,-RA,0.00,283.00,VWS V14.01,2013-05-03 18:33:00,
2013-05-03 13:38:00,35.6,32.1,30.17,North,9,8.0,8.0,87,0.00,,-RA,0.00,269.00,VWS V14.01,2013-05-03 18:38:00,
2013-05-03 13:43:00,35.5,32.0,30.17,NE,44,4.0,8.0,87,0.00,,-RA,0.00,276.00,VWS V14.01,2013-05-03 18:43:00,
2013-05-03 13:48:00,35.5,32.3,30.17,NE,36,1.0,8.0,88,0.00,,-RA,0.00,283.00,VWS V14.01,2013-05-03 18:48:00,
2013-05-03 13:53:00,35.5,32.3,30.16,NNE,29,3.0,8.0,88,0.00,,-RA,0.00,279.00,VWS V14.01,2013-05-03 18:53:00,
2013-05-03 13:58:00,35.5,32.0,30.16,NNE,22,3.0,8.0,87,0.00,,-RA,0.00,251.00,VWS V14.01,2013-05-03 18:58:00,
2013-05-03 14:03:00,35.5,32.3,30.16,NNE,28,1.0,7.0,88,0.00,,-RA,0.00,234.00,VWS V14.01,2013-05-03 19:03:00,
2013-05-03 14:08:00,35.5,32.0,30.16,NNE,21,6.0,7.0,87,0.00,,-RA,0.00,202.00,VWS V14.01,2013-05-03 19:08:00,
2013-05-03 14:13:00,35.3,32.1,30.16,NNE,21,7.0,9.0,88,0.00,,-RA,0.00,200.00,VWS V14.01,2013-05-03 19:13:00,
2013-05-03 14:18:00,35.3,32.1,30.16,NNE,26,2.0,9.0,88,0.00,,-RA,0.00,185.00,VWS V14.01,2013-05-03 19:18:00,
2013-05-03 14:23:00,35.3,32.1,30.16,North,5,1.0,9.0,88,0.00,,-RA,0.00,179.00,VWS V14.01,2013-05-03 19:23:00,
2013-05-03 14:28:00,35.3,32.1,30.16,NNE,20,4.0,9.0,88,0.00,,-RA,0.00,176.00,VWS V14.01,2013-05-03 19:28:00,
2013-05-03 14:33:00,35.3,32.1,30.17,NE,39,1.0,6.0,88,0.00,,-RA,0.00,162.00,VWS V14.01,2013-05-03 19:33:00,
2013-05-03 14:38:00,35.4,32.2,30.17,NE,39,2.0,6.0,88,0.00,,-RA,0.00,155.00,VWS V14.01,2013-05-03 19:38:00,
2013-05-03 14:43:00,35.4,32.5,30.16,North,5,1.0,6.0,89,0.00,,-RA,0.00,141.00,VWS V14.01,2013-05-03 19:43:00,
2013-05-03 14:48:00,35.3,32.4,30.16,NNE,20,2.0,6.0,89,0.00,,-RA,0.00,148.00,VWS V14.01,2013-05-03 19:48:00,
2013-05-03 14:53:00,35.2,32.3,30.16,NE,36,4.0,6.0,89,0.00,,-RA,0.00,137.00,VWS V14.01,2013-05-03 19:53:00,
2013-05-03 14:58:00,35.1,31.9,30.16,NNE,18,3.0,7.0,88,0.00,,-RA,0.00,142.00,VWS V14.01,2013-05-03 19:58:00,
2013-05-03 15:03:00,35.1,32.2,30.16,NNE,16,3.0,4.0,89,0.00,,-RA,0.00,155.00,VWS V14.01,2013-05-03 20:03:00,
2013-05-03 15:08:00,35.2,32.3,30.16,NE,40,2.0,7.0,89,0.00,,-RA,0.00,165.00,VWS V14.01,2013-05-03 20:08:00,
2013-05-03 15:13:00,35.1,32.2,30.16,NE,55,7.0,9.0,89,0.00,,-RA,0.00,162.00,VWS V14.01,2013-05-03 20:13:00,
2013-05-03 15:18:00,35.2,32.3,30.16,North,5,3.0,9.0,89,0.00,,-RA,0.00,155.00,VWS V14.01,2013-05-03 20:18:00,
2013-05-03 15:23:00,35.2,32.3,30.15,NNE,24,3.0,9.0,89,0.00,,-RA,0.00,156.00,VWS V14.01,2013-05-03 20:23:00,
2013-05-03 15:28:00,35.1,32.2,30.14,NE,43,1.0,9.0,89,0.00,,-RA,0.00,165.00,VWS V14.01,2013-05-03 20:28:00,
2013-05-03 15:33:00,35.0,32.1,30.15,NE,36,2.0,5.0,89,0.00,,-RA,0.00,111.00,VWS V14.01,2013-05-03 20:33:00,
2013-05-03 15:38:00,34.9,32.0,30.14,North,5,5.0,6.0,89,0.00,,-RA,0.00,97.00,VWS V14.01,2013-05-03 20:38:00,
2013-05-03 15:43:00,34.8,31.9,30.14,NNE,32,3.0,8.0,89,0.00,,-RA,0.00,123.00,VWS V14.01,2013-05-03 20:43:00,
2013-05-03 15:48:00,34.8,31.9,30.14,NNE,28,3.0,8.0,89,0.00,,-RA,0.00,165.00,VWS V14.01,2013-05-03 20:48:00,
2013-05-03 15:53:00,35.0,32.4,30.14,NNE,32,3.0,8.0,90,0.00,,-RA,0.00,188.00,VWS V14.01,2013-05-03 20:53:00,
2013-05-03 15:58:00,34.9,32.0,30.14,NNE,22,3.0,8.0,89,0.00,,-RA,0.00,190.00,VWS V14.01,2013-05-03 20:58:00,
2013-05-03 16:03:00,35.0,32.4,30.14,NNE,14,7.0,7.0,90,0.00,,-RA,0.00,172.00,VWS V14.01,2013-05-03 21:03:00,
2013-05-03 16:08:00,35.0,32.4,30.14,NNE,27,4.0,7.0,90,0.00,,-RA,0.00,167.00,VWS V14.01,2013-05-03 21:08:00,
2013-05-03 16:13:00,34.9,32.0,30.14,NE,37,2.0,7.0,89,0.00,,-RA,0.00,139.00,VWS V14.01,2013-05-03 21:13:00,
2013-05-03 16:18:00,34.9,32.0,30.14,NE,38,4.0,7.0,89,0.00,,-RA,0.00,120.00,VWS V14.01,2013-05-03 21:18:00,
2013-05-03 16:23:00,34.7,31.8,30.14,NE,38,2.0,8.0,89,0.00,,-RA,0.00,93.00,VWS V14.01,2013-05-03 21:23:00,
2013-05-03 16:28:00,34.7,31.8,30.14,NNE,28,2.0,8.0,89,0.00,,-RA,0.00,79.00,VWS V14.01,2013-05-03 21:28:00,
2013-05-03 16:33:00,34.6,32.0,30.13,NNE,32,3.0,5.0,90,0.00,,-RA,0.00,86.00,VWS V14.01,2013-05-03 21:33:00,
2013-05-03 16:38:00,34.5,31.9,30.13,NNE,28,3.0,7.0,90,0.00,,-RA,0.00,97.00,VWS V14.01,2013-05-03 21:38:00,
2013-05-03 16:43:00,34.4,31.8,30.13,NNE,30,3.0,7.0,90,0.00,,-RA,0.00,79.00,VWS V14.01,2013-05-03 21:43:00,
2013-05-03 16:48:00,34.3,31.7,30.13,NNE,23,2.0,8.0,90,0.00,,-RA,0.00,65.00,VWS V14.01,2013-05-03 21:48:00,
2013-05-03 16:53:00,34.3,31.7,30.13,NNE,17,5.0,12.0,90,0.00,,-RA,0.00,76.00,VWS V14.01,2013-05-03 21:53:00,
2013-05-03 16:58:00,34.3,31.7,30.13,NNE,32,3.0,12.0,90,0.00,,-RA,0.00,70.00,VWS V14.01,2013-05-03 21:58:00,
2013-05-03 17:03:00,34.2,31.6,30.13,NNE,32,2.0,5.0,90,0.00,,-RA,0.00,83.00,VWS V14.01,2013-05-03 22:03:00,
2013-05-03 17:08:00,34.2,31.6,30.13,NE,41,3.0,8.0,90,0.00,,-RA,0.00,81.00,VWS V14.01,2013-05-03 22:08:00,
2013-05-03 17:13:00,34.2,31.6,30.13,NNE,24,2.0,8.0,90,0.00,,-RA,0.00,58.00,VWS V14.01,2013-05-03 22:13:00,
2013-05-03 17:18:00,34.2,31.6,30.13,NNE,22,2.0,8.0,90,0.00,,-RA,0.00,46.00,VWS V14.01,2013-05-03 22:18:00,
2013-05-03 17:23:00,34.1,31.5,30.12,NNE,30,4.0,8.0,90,0.00,,-RA,0.00,42.00,VWS V14.01,2013-05-03 22:23:00,
2013-05-03 17:28:00,34.1,31.5,30.13,NNE,32,2.0,8.0,90,0.00,,-RA,0.00,33.00,VWS V14.01,2013-05-03 22:28:00,
2013-05-03 17:33:00,34.1,31.5,30.14,NNE,32,3.0,4.0,90,0.00,,-RA,0.00,30.00,VWS V14.01,2013-05-03 22:33:00,
2013-05-03 17:38:00,34.1,31.5,30.13,North,11,4.0,7.0,90,0.00,,-RA,0.00,44.00,VWS V14.01,2013-05-03 22:38:00,
2013-05-03 17:43:00,34.1,31.5,30.13,North,11,3.0,7.0,90,0.00,,-RA,0.00,33.00,VWS V14.01,2013-05-03 22:43:00,
2013-05-03 17:48:00,34.1,31.5,30.14,NNE,30,2.0,7.0,90,0.00,,-RA,0.00,26.00,VWS V14.01,2013-05-03 22:48:00,
2013-05-03 17:53:00,34.1,31.5,30.14,NNE,30,1.0,7.0,90,0.00,,-RA,0.00,39.00,VWS V14.01,2013-05-03 22:53:00,
2013-05-03 17:58:00,34.1,31.5,30.15,NE,38,2.0,7.0,90,0.00,,-RA,0.00,42.00,VWS V14.01,2013-05-03 22:58:00,
2013-05-03 18:03:00,34.1,31.5,30.14,NE,49,1.0,5.0,90,0.00,,-RA,0.00,42.00,VWS V14.01,2013-05-03 23:03:00,
2013-05-03 18:08:00,34.1,31.5,30.14,NE,44,2.0,5.0,90,0.00,,-RA,0.00,37.00,VWS V14.01,2013-05-03 23:08:00,
2013-05-03 18:13:00,34.1,31.5,30.14,NNE,30,1.0,5.0,90,0.00,,-RA,0.00,25.00,VWS V14.01,2013-05-03 23:13:00,
2013-05-03 18:18:00,34.1,31.5,30.14,NNE,29,1.0,6.0,90,0.00,,-RA,0.00,32.00,VWS V14.01,2013-05-03 23:18:00,
2013-05-03 18:23:00,34.1,31.8,30.13,NNE,24,1.0,6.0,91,0.00,,-RA,0.00,37.00,VWS V14.01,2013-05-03 23:23:00,
2013-05-03 18:28:00,34.1,31.5,30.14,NNE,19,2.0,6.0,90,0.00,,-RA,0.00,39.00,VWS V14.01,2013-05-03 23:28:00,
2013-05-03 18:33:00,34.1,31.5,30.14,North,5,1.0,6.0,90,0.00,,-RA,0.00,39.00,VWS V14.01,2013-05-03 23:33:00,
2013-05-03 18:38:00,34.1,31.5,30.14,North,5,3.0,6.0,90,0.00,,-RA,0.00,37.00,VWS V14.01,2013-05-03 23:38:00,
2013-05-03 18:43:00,34.1,31.5,30.14,NNE,14,2.0,6.0,90,0.00,,RA,0.00,33.00,VWS V14.01,2013-05-03 23:43:00,
2013-05-03 18:48:00,34.1,31.8,30.14,NNE,16,1.0,6.0,91,0.00,,RA,0.00,32.00,VWS V14.01,2013-05-03 23:48:00,
2013-05-03 18:53:00,34.1,31.5,30.14,NNE,15,0.0,6.0,90,0.00,,RA,0.00,30.00,VWS V14.01,2013-05-03 23:53:00,
2013-05-03 18:58:00,34.1,31.8,30.14,NNE,26,1.0,6.0,91,0.00,,RA,0.00,21.00,VWS V14.01,2013-05-03 23:58:00,
2013-05-03 19:03:00,34.1,31.8,30.14,NNE,26,4.0,4.0,91,0.00,,OVC021,0.00,23.00,VWS V14.01,2013-05-04 00:03:00,
2013-05-03 19:08:00,34.1,31.8,30.14,NNE,26,1.0,4.0,91,0.00,,OVC021,0.00,23.00,VWS V14.01,2013-05-04 00:08:00,
2013-05-03 19:13:00,34.0,31.6,30.14,NNE,20,0.0,5.0,91,0.00,,OVC021,0.00,21.00,VWS V14.01,2013-05-04 00:13:00,
2013-05-03 19:18:00,34.1,31.8,30.14,NNE,20,0.0,5.0,91,0.00,,OVC021,0.00,21.00,VWS V14.01,2013-05-04 00:18:00,
2013-05-03 19:23:00,34.0,31.4,30.14,North,5,3.0,5.0,90,0.00,,OVC021,0.00,19.00,VWS V14.01,2013-05-04 00:23:00,
2013-05-03 19:28:00,34.0,31.4,30.14,NNE,12,0.0,5.0,90,0.00,,OVC021,0.00,16.00,VWS V14.01,2013-05-04 00:28:00,
2013-05-03 19:33:00,34.0,31.6,30.14,NNE,18,2.0,3.0,91,0.00,,OVC021,0.00,14.00,VWS V14.01,2013-05-04 00:33:00,
2013-05-03 19:38:00,34.0,31.6,30.14,NNE,13,2.0,5.0,91,0.00,,OVC021,0.00,12.00,VWS V14.01,2013-05-04 00:38:00,
2013-05-03 19:43:00,34.0,31.6,30.13,North,5,1.0,5.0,91,0.00,,OVC021,0.00,12.00,VWS V14.01,2013-05-04 00:43:00,
2013-05-03 19:48:00,33.9,31.6,30.13,North,355,1.0,5.0,91,0.00,,OVC021,0.00,11.00,VWS V14.01,2013-05-04 00:48:00,
2013-05-03 19:53:00,33.9,31.6,30.13,North,9,4.0,7.0,91,0.00,,OVC021,0.00,9.00,VWS V14.01,2013-05-04 00:53:00,
2013-05-03 19:58:00,33.9,31.6,30.13,NNE,12,0.0,7.0,91,0.00,,OVC021,0.00,7.00,VWS V14.01,2013-05-04 00:58:00,
2013-05-03 20:03:00,33.9,31.6,30.13,NNE,18,3.0,4.0,91,0.00,,OVC017,0.00,0.00,VWS V14.01,2013-05-04 01:03:00,
2013-05-03 20:08:00,33.9,31.6,30.13,NNE,12,2.0,4.0,91,0.00,,OVC017,0.00,0.00,VWS V14.01,2013-05-04 01:08:00,
2013-05-03 20:13:00,33.9,31.6,30.13,North,360,5.0,5.0,91,0.00,,OVC017,0.00,0.00,VWS V14.01,2013-05-04 01:13:00,
2013-05-03 20:18:00,33.8,31.5,30.13,NNE,21,2.0,5.0,91,0.00,,OVC017,0.00,0.00,VWS V14.01,2013-05-04 01:18:00,
2013-05-03 20:23:00,33.8,31.5,30.13,NNE,23,2.0,5.0,91,0.00,,OVC017,0.00,0.00,VWS V14.01,2013-05-04 01:23:00,
2013-05-03 20:28:00,33.9,31.6,30.13,NNE,24,3.0,5.0,91,0.00,,OVC017,0.00,0.00,VWS V14.01,2013-05-04 01:28:00,
2013-05-03 20:33:00,33.9,31.6,30.13,NNE,31,1.0,4.0,91,0.00,,OVC017,0.00,0.00,VWS V14.01,2013-05-04 01:33:00,
2013-05-03 20:38:00,33.8,31.5,30.13,North,5,3.0,4.0,91,0.00,,OVC017,0.00,0.00,VWS V14.01,2013-05-04 01:38:00,
2013-05-03 20:43:00,33.9,31.6,30.13,North,11,4.0,5.0,91,0.00,,OVC017,0.00,0.00,VWS V14.01,2013-05-04 01:43:00,
2013-05-03 20:48:00,33.9,31.6,30.13,NE,34,4.0,5.0,91,0.00,,OVC017,0.00,0.00,VWS V14.01,2013-05-04 01:48:00,
2013-05-03 20:53:00,33.9,31.6,30.14,NNE,19,2.0,6.0,91,0.00,,OVC017,0.00,0.00,VWS V14.01,2013-05-04 01:53:00,
2013-05-03 20:58:00,33.9,31.6,30.14,NNE,22,1.0,6.0,91,0.00,,OVC017,0.00,0.00,VWS V14.01,2013-05-04 01:58:00,
2013-05-03 21:03:00,33.9,31.6,30.14,North,10,0.0,4.0,91,0.00,,OVC013,0.00,0.00,VWS V14.01,2013-05-04 02:03:00,
2013-05-03 21:08:00,33.9,31.6,30.14,North,10,1.0,4.0,91,0.00,,OVC013,0.00,0.00,VWS V14.01,2013-05-04 02:08:00,
2013-05-03 21:13:00,33.9,31.6,30.14,NNE,13,1.0,5.0,91,0.00,,OVC013,0.00,0.00,VWS V14.01,2013-05-04 02:13:00,
2013-05-03 21:18:00,33.9,31.6,30.14,NNE,14,2.0,5.0,91,0.00,,OVC013,0.00,0.00,VWS V14.01,2013-05-04 02:18:00,
2013-05-03 21:23:00,33.9,31.6,30.14,North,5,1.0,5.0,91,0.00,,OVC013,0.00,0.00,VWS V14.01,2013-05-04 02:23:00,
2013-05-03 21:28:00,33.9,31.6,30.14,North,5,0.0,5.0,91,0.00,,OVC013,0.00,0.00,VWS V14.01,2013-05-04 02:28:00,
2013-05-03 21:33:00,33.9,31.6,30.14,North,5,0.0,3.0,91,0.00,,OVC013,0.00,0.00,VWS V14.01,2013-05-04 02:33:00,
2013-05-03 21:38:00,33.9,31.6,30.14,North,9,2.0,3.0,91,0.00,,OVC013,0.00,0.00,VWS V14.01,2013-05-04 02:38:00,
2013-05-03 21:43:00,33.9,31.6,30.15,NE,36,4.0,5.0,91,0.00,,OVC013,0.00,0.00,VWS V14.01,2013-05-04 02:43:00,
2013-05-03 21:48:00,34.0,31.6,30.14,NNE,32,3.0,5.0,91,0.00,,OVC013,0.00,0.00,VWS V14.01,2013-05-04 02:48:00,
2013-05-03 21:53:00,34.0,31.6,30.14,NNE,19,2.0,6.0,91,0.00,,OVC013,0.00,0.00,VWS V14.01,2013-05-04 02:53:00,
2013-05-03 21:58:00,34.0,31.6,30.14,NNE,19,1.0,6.0,91,0.00,,OVC013,0.00,0.00,VWS V14.01,2013-05-04 02:58:00,
2013-05-03 22:03:00,34.0,31.6,30.14,NNE,19,1.0,4.0,91,0.00,,-RA,0.00,0.00,VWS V14.01,2013-05-04 03:03:00,
2013-05-03 22:08:00,34.0,31.6,30.14,NNE,21,4.0,4.0,91,0.00,,-RA,0.00,0.00,VWS V14.01,2013-05-04 03:08:00,
2013-05-03 22:13:00,34.0,31.6,30.14,NNE,13,6.0,6.0,91,0.00,,-RA,0.00,0.00,VWS V14.01,2013-05-04 03:13:00,
2013-05-03 22:18:00,34.0,31.6,30.13,NNE,25,3.0,9.0,91,0.00,,-RA,0.00,0.00,VWS V14.01,2013-05-04 03:18:00,
2013-05-03 22:23:00,34.0,31.6,30.13,NNE,25,3.0,9.0,91,0.00,,-RA,0.00,0.00,VWS V14.01,2013-05-04 03:23:00,
2013-05-03 22:28:00,34.0,31.6,30.13,NE,35,2.0,9.0,91,0.00,,-RA,0.00,0.00,VWS V14.01,2013-05-04 03:28:00,
2013-05-03 22:33:00,34.0,31.6,30.14,NNE,12,0.0,4.0,91,0.00,,-RA,0.00,0.00,VWS V14.01,2013-05-04 03:33:00,
2013-05-03 22:38:00,34.0,31.6,30.14,NNE,12,3.0,4.0,91,0.00,,-RA,0.00,0.00,VWS V14.01,2013-05-04 03:38:00,
2013-05-03 22:43:00,34.0,31.6,30.13,NNE,19,1.0,4.0,91,0.00,,-RA,0.00,0.00,VWS V14.01,2013-05-04 03:43:00,
2013-05-03 22:48:00,34.0,31.6,30.13,NNE,17,2.0,4.0,91,0.00,,-RA,0.00,0.00,VWS V14.01,2013-05-04 03:48:00,
2013-05-03 22:53:00,34.0,31.6,30.14,North,355,3.0,4.0,91,0.00,,-RA,0.00,0.00,VWS V14.01,2013-05-04 03:53:00,
2013-05-03 22:58:00,34.0,31.6,30.14,NNE,19,3.0,5.0,91,0.00,,-RA,0.00,0.00,VWS V14.01,2013-05-04 03:58:00,
2013-05-03 23:01:00,34.0,31.6,30.14,NNE,20,1.0,3.0,91,0.00,,OVC015,0.00,0.00,VWS V14.01,2013-05-04 04:01:00,
2013-05-03 23:06:00,34.0,31.6,30.13,NE,44,2.0,6.0,91,0.00,,OVC015,0.00,0.00,VWS V14.01,2013-05-04 04:06:00,
2013-05-03 23:11:00,34.1,31.8,30.13,NNE,19,4.0,6.0,91,0.00,,OVC015,0.00,0.00,VWS V14.01,2013-05-04 04:11:00,
2013-05-03 23:16:00,34.1,31.8,30.12,North,355,1.0,6.0,91,0.00,,OVC015,0.00,0.00,VWS V14.01,2013-05-04 04:16:00,
2013-05-03 23:21:00,34.1,31.8,30.12,North,11,1.0,6.0,91,0.00,,OVC015,0.00,0.00,VWS V14.01,2013-05-04 04:21:00,
2013-05-03 23:26:00,34.1,31.8,30.13,NNE,15,4.0,6.0,91,0.00,,OVC015,0.00,0.00,VWS V14.01,2013-05-04 04:26:00,
2013-05-03 23:31:00,34.1,31.8,30.13,NNE,17,3.0,4.0,91,0.00,,OVC015,0.00,0.00,VWS V14.01,2013-05-04 04:31:00,
2013-05-03 23:36:00,34.1,31.8,30.12,NNE,16,1.0,5.0,91,0.00,,OVC015,0.00,0.00,VWS V14.01,2013-05-04 04:36:00,
2013-05-03 23:41:00,34.1,31.8,30.13,NNE,16,2.0,5.0,91,0.00,,OVC013,0.00,0.00,VWS V14.01,2013-05-04 04:41:00,
2013-05-03 23:46:00,34.1,31.8,30.12,NNE,16,2.0,5.0,91,0.00,,OVC013,0.00,0.00,VWS V14.01,2013-05-04 04:46:00,
2013-05-03 23:51:00,34.1,31.8,30.12,NNE,17,0.0,5.0,91,0.00,,OVC013,0.00,0.00,VWS V14.01,2013-05-04 04:51:00,
2013-05-03 23:56:00,34.1,31.8,30.12,NNE,17,1.0,5.0,91,0.00,,OVC013,0.00,0.00,VWS V14.01,2013-05-04 04:56:00,